This demonstration page uses our WeatherBlox Daily Observations layout. Learn more.

Left ArrowRight Arrow

38.83388, -104.82136

Hourly Observations for April 26, 2022

Temp ( °F °C ) Dew Point ( °F °C ) Humidity (%) Winds ( mph kmh ) Pressure ( in mb ) Visibility ( mi km ) Precip ( " mm )
12:18 am 00:18 Cloudy 39 4 28 -2 65 65 E 12 19 30.02 1017 10 16 0.00 0.00
12:58 am 00:58 Cloudy 40 4.3 27 -2.6 61 61 SE 14 22 30.02 1017 10 16 0.00 0.00
1:18 am 01:18 Cloudy 39 4 27 -3 61 61 SE 16 26 30.00 1016 10 16 0.00 0.00
1:58 am 01:58 Mostly Clear 37 3 24 -4.2 60 60 ESE 10 17 29.97 1015 10 16 0.00 0.00
2:58 am 02:58 Clear 37 2.8 25 -3.8 62 62 SE 12 19 29.95 1014 10 16 0.00 0.00
3:58 am 03:58 Clear 37 2.6 24 -4.2 61 61 SE 8 13 29.93 1013 10 16 0.00 0.00
4:58 am 04:58 Clear 34 1.2 25 -3.9 69 69 Calm 29.90 1012 10 16 0.00 0.00
5:58 am 05:58 Clear 33 0.7 24 -4.5 69 69 Calm 29.89 1012 10 16 0.00 0.00
6:58 am 06:58 Sunny 34 1 24 -4.4 68 68 Calm 29.93 1013 10 16 0.00 0.00
7:58 am 07:58 Sunny 38 3.4 24 -4.3 57 57 NNW 3 6 29.99 1016 10 16 0.00 0.00
8:58 am 08:58 Sunny 42 5.8 26 -3.3 52 52 NE 3 6 29.99 1016 10 16 0.00 0.00
9:58 am 09:58 Sunny 46 7.7 26 -3.2 46 46 NE 5 7 30.01 1016 10 16 0.00 0.00
10:58 am 10:58 Sunny 52 10.9 27 -2.9 38 38 ENE 8 13 29.98 1015 10 16 0.00 0.00
11:58 am 11:58 Sunny 57 13.7 29 -1.5 35 35 ENE 8 13 29.98 1015 10 16 0.00 0.00
12:58 pm 12:58 Mostly Sunny 61 15.9 24 -4.7 24 24 E 8 13 29.98 1015 10 16 0.00 0.00
1:46 pm 13:46 Mostly Sunny 64 18 19 -7 18 18 W 43 69 29.95 1014 10 16 0.00 0.00
1:58 pm 13:58 Partly Cloudy 65 18.3 19 -7.2 17 17 Calm 29.94 1014 10 16 0.00 0.00
2:58 pm 14:58 Mostly Cloudy 63 17.4 18 -7.9 17 17 SSE 15 24 29.93 1013 10 16 0.00 0.00
3:58 pm 15:58 Mostly Cloudy 67 19.5 13 -10.7 12 12 ESE 6 9 29.94 1014 10 16 0.00 0.00
4:07 pm 16:07 Mostly Cloudy 68 20 16 -9 13 13 S 18 30 29.93 1014 10 16 0.00 0.00
4:30 pm 16:30 Mostly Sunny 66 19 14 -10 13 13 SE 13 20 29.91 1013 10 16 0.00 0.00
4:58 pm 16:58 Mostly Cloudy 66 19.1 14 -10 13 13 S 10 17 29.93 1013 10 16 0.00 0.00
5:06 pm 17:06 Mostly Cloudy 66 19 14 -10 13 13 S 14 22 29.93 1013 10 16 0.00 0.00
5:58 pm 17:58 Mostly Sunny 64 17.6 17 -8.5 16 16 SSE 9 15 29.88 1012 10 16 0.00 0.00
6:58 pm 18:58 Mostly Sunny 61 16.2 17 -8.2 18 18 SSW 9 15 29.83 1010 10 16 0.00 0.00
7:58 pm 19:58 Clear 61 15.9 18 -7.7 19 19 SSW 8 13 29.80 1009 10 16 0.00 0.00
8:58 pm 20:58 Clear 60 15.5 19 -7.4 20 20 WSW 8 13 29.79 1009 10 16 0.00 0.00
9:58 pm 21:58 Clear 60 15.8 18 -7.8 19 19 SW 10 17 29.76 1008 10 16 0.00 0.00
10:58 pm 22:58 Clear 56 13.4 16 -9.1 20 20 WNW 8 13 29.74 1007 10 16 0.00 0.00
11:58 pm 23:58 Clear 56 13.6 15 -9.6 19 19 W 3 6 29.69 1005 10 16 0.00 0.00

Powered by AerisWeather